Погода в Бирмингеме

Великобритания     52°29′41″N   1°51′05″W
темп.,
°C
ветер,
м/с
пор.,
м/с
влажн.,
%
обл.,
%
осадки,
мм/ч
давл.,
гПа
погр.,
м
21 апреля, ср
ср2101:00+9ссв1185100 0.1 101938
04:00+8св3794100 0.5 1020260
07:00+6св4109381 0.5 1021443
10:00+9всв5980100 0.0 1023788
13:00+10всв5666100 0.1 10231103
16:00+10всв4561100 0.0 10231179
19:00+9всв4560100 0.0 10241172
22:00+5в39755 0.0 1026462
22 апреля, чт
чт2201:00+3в27825 0.0 1027231
04:00+1всв26845 0.0 1027174
07:00+1всв24815 0.0 1028144
10:00+7в24525 0.0 1029634
13:00+12вюв34364 0.0 10281051
16:00+13вюв33374 0.0 10281222
19:00+11вюв34525 0.0 1028887
22:00+7в37705 0.0 1029197
23 апреля, пт
пт2301:00+4юв25830 0.0 1030151
04:00+3вюв13780 0.0 103086
07:00+3вюв25670 0.0 1030131
10:00+9вюв36490 0.0 1030546
13:00+14вюв46410 0.0 10291038
16:00+15вюв45403 0.0 10281280
19:00+13вюв355598 0.0 1028958
22:00+7вюв386942 0.0 1029256
24 апреля, сб
сб2401:00+5вюв3969100 0.0 1029234
04:00+3в2867100 0.0 1029203
07:00+4в3870100 0.0 1029215
10:00+9в4757100 0.0 1029547
13:00+12в5751100 0.0 10281059
16:00+14в5751100 0.0 10271275
19:00+12в4764100 0.0 10271056
22:00+8в3977100 0.0 1029510
25 апреля, вс
вс2501:00+6в31079100 0.0 1029340
04:00+4в31080100 0.0 1028275
07:00+4всв3983100 0.0 1028269
10:00+9всв4758100 0.0 1027676
13:00+12в4648100 0.0 10261057
16:00+13в4650100 0.0 10231174
19:00+12всв456299 0.0 1022986
22:00+7в387398 0.0 1023316